Gold Country Challenge - Loft Flight

Station: Loft Fly - T Race

Distance: 0.3 Miles    

Release: 13-Sep-2017 07:00

Weather Release:    Arrival:

Wind at Release:     Wind at Arrival:

Temp at Release: °    Temp at Arrival: °

Lofts: 85

Birds: 307

Clocked: 308

60 Miles Friday or Sunday. Birds on Canker Treatement with Ronidazole
Drops Pos Breeder Pigeon Name Color Sex Ent Arrival Speed To Win Eligible Champ
201 Stone Loft - NC 8855-IF17-FOYS BC H 2 09:12:35.20 3.982 00:56:55 Yes
202 Rob Wilson - CA 1303-AU17-AVC BB H 1 09:14:09.60 3.936 00:58:27 Yes
203 Perfection Loft & Torres Loft - KS 3732-AU17-AA BB H 4 09:14:55.30 3.913 00:59:15 Yes
204 Mike Belus - CA 6728-AU17-JEDD BB H 4 09:17:52.80 3.829 01:02:12 Lost
205 Sugaronni Loft - CA 7047-AU17-FOYS BB H 2 09:18:22.30 3.816 01:02:41 Yes
206 V Lin - IA 0369-AU17-VLIN BC H 4 09:18:30.90 3.812 01:02:49 Lost
207 Sugaronni Loft - CA 7042-AU17-FOYS Sugar-Oddie BB H 3 09:18:39.60 3.808 01:02:58 Lost
208 D J's Loft Of Ca - CA 6017-AU17-FSC DCWF H 1 09:18:55.20 3.801 01:03:13 Yes
209 Jactions Loft - CA 15960-AU17-AA BB H 5 09:18:56.30 3.800 01:03:16 Lost
210 Flying W - CA 0522-AU17-AUB Na/1648 hof BC H 5 09:19:19.70 3.790 01:03:38 Yes
211 Duane Gragg - CA 0778-AU17-KEY BB H 1 09:19:26.70 3.786 01:03:46 Yes
212 Marengo Creek Farms - AL 2688-AU17-MCF BBWF H 2 09:20:06.10 3.769 01:04:24 Yes
213 Silicon Valley Syndicates - CA 1758-AU17-WSJ BB H 4 09:21:08.70 3.741 01:05:27 Lost
214 Kim Wong - VT 10886-AU17-ARPU BB H 3 09:23:23.60 3.682 01:07:43 Yes
215 Skylinerpl.Com - UT 0214-AU17-UVI "NRPL" BB H 4 09:23:28.00 3.680 01:07:47 Yes
216 P N W Challenge - ID 7032-AU17-PNWC "5030-12" BB H 4 09:23:44.80 3.673 01:08:04 Yes
217 Richard Callahan - MO 1666-AU17-AA BB H 1 09:25:06.50 3.639 01:09:24 Yes
218 California Breeders Syndicate - CA 19029-AU17-AA BC H 4 09:25:25.90 3.631 01:09:44 Yes
219 Sierra Ranch - CA 0777-AU17-SR SLT H 5 09:25:56.10 3.618 01:10:15 Yes
220 Euro Dead - CA 6632-AU17-FSC BC H 5 09:26:00.30 3.616 01:10:20 Lost
220 Haack Loft - CA 2738-AU17-JEDD RB H 3 09:26:01.00 3.616 01:10:20 Yes
222 Larios Loft - CA 7822-AU17-FSC BC H 3 09:26:31.40 3.604 01:10:49 Yes
223 A P C Loft - TX 17176-AU17-APC BB H 6 09:26:37.80 3.601 01:10:56 Yes
224 Richard Callahan - MO 1665-AU17-AA BB H 2 09:26:40.70 3.600 01:10:59 Yes
225 John Partridge - CA 0524-AU17-PASO Voyager24 BC H 4 09:26:46.20 3.597 01:11:06 Yes
226 Jamie Bertero - CA 0547-AU17-ML DCSP H 1 09:26:57.10 3.593 01:11:16 Yes
227 Ron Brooks - AR 1734-AU17-REB BBSP H 3 09:27:06.50 3.589 01:11:26 Lost
228 Flyhome Loft - CA 26324-AU17-ARPU BB H 1 09:27:09.30 3.588 01:11:28 Yes
229 Sugaronni Loft - CA 7043-AU17-FOYS BB H 4 09:28:11.90 3.563 01:12:30 Yes
230 Bolgar Loft - CA 7598-AU17-FSC BB H 1 09:28:30.60 3.555 01:12:50 Lost
231 Mike Belus - CA 6729-AU17-JEDD BB H 5 09:29:01.90 3.543 01:13:20 Lost
232 America\'s Dream Loft - IL 0078-AU17-ADL BC H 1 09:29:23.80 3.534 01:13:43 Yes
233 Kay Eastwood - CA 19120-AU17-AA BB H 5 09:29:32.30 3.531 01:13:51 Lost
234 Flyin Hawaiian Lanai Loft - HI 0113-AU17-LANA Lokahi 113 BCSP H 1 09:29:51.30 3.523 01:14:11 Lost
235 Jactions Loft - CA 15957-AU17-AA BB H 6 09:29:57.10 3.521 01:14:16 Yes
236 D J's Loft Of Ca - CA 6008-AU17-FSC BB H 2 09:29:59.80 3.520 01:14:19 Yes
237 Hayloft - CA 7330-AU17-GSF BC H 3 09:30:12.20 3.515 01:14:32 Yes
238 Flyhome Loft - CA 26326-AU17-ARPU BB H 2 09:30:21.40 3.512 01:14:39 Yes
239 Cloux Loft - CO 8132-AU17-FH BB H 4 09:31:39.20 3.482 01:15:57 Yes
240 Barrett Family Loft - IL 0010-AU17-BARR BCWF H 4 09:32:07.50 3.471 01:16:26 Yes
241 Huan Qiu Zhang - NC 1812-IF17-JNC BB H 3 09:33:32.10 3.439 01:17:51 Yes
242 Al Shulman - CA 0247-AU17-WSJ BBSP H 4 09:33:48.30 3.433 01:18:07 Lost
243 Barrett Family Loft - IL 0002-AU17-BARR BC H 5 09:34:48.80 3.411 01:19:06 Lost
244 Kay Eastwood - CA 19025-AU17-AA BCWF H 6 09:35:02.70 3.405 01:19:23 Lost
245 Dream Team - VT 0716-AU17-JCZL BC H 7 09:35:15.40 3.401 01:19:34 Yes
246 Chala Loft - WA 0292-AU17-PSF BB H 3 09:35:48.50 3.389 01:20:07 Yes
247 Dream Team - VT 0343-AU17-JCZL 74902 x 27865 BC H 8 09:35:50.70 3.388 01:20:09 Yes
248 Barrett Family Loft - IL 0018-AU17-BARR PIED H 6 09:36:24.60 3.376 01:20:43 Lost
249 Sierra Ranch - CA 1789-AU17-SR BB H 6 09:38:28.60 3.332 01:22:47 Yes
250 Loizzi - Sikora - CA 3720-AU17-FVC PIED H 3 09:39:17.10 3.315 01:23:35 Yes
251 Barrett Family Loft - IL 0026-AU17-BARR DCSP H 7 09:39:57.30 3.301 01:24:16 Yes
252 D J's Loft Of Ca - CA 6007-AU17-FSC BB H 3 09:41:04.70 3.278 01:25:23 Yes
253 Taylor Loft - NM 0410-AU17-NMRP Gold One BB H 1 09:41:13.30 3.275 01:25:32 Lost
254 Lito Maniego Loft - CA 13729-AU17-ARPU BB H 2 09:41:25.70 3.271 01:25:44 Yes
255 Cloux Loft - CO 8123-AU17-FH BCWF H 5 09:41:45.70 3.264 01:26:05 Yes
256 Haack Loft - CA 2742-AU17-JEDD RC H 4 09:42:02.90 3.258 01:26:22 Lost
257 Bieche-Stevenson - CA 7233-AU17-BIE DC H 4 09:42:16.50 3.254 01:26:34 Yes
258 Gypsy Lofts - CA 5184-AU17-AA What the Dickens! BB H 4 09:42:56.60 3.240 01:27:16 Yes
259 Richard Callahan - MO 1672-AU17-AA BC H 3 09:44:25.90 3.211 01:28:45 Yes
260 Flyhome Loft - CA 26331-AU17-ARPU BC H 3 09:49:18.80 3.118 01:33:39 Yes
261 Plymouth Peak Pro Challenge - UT 7112-AU17-GS BCWF H 2 09:55:24.70 3.010 01:39:44 Lost
262 Jim Lauritzen - CA 0338-AU17-EAV BC H 1 09:56:26.00 2.993 01:40:43 Lost
263 H & H Flying Circus - CA 0706-AU17-ML BB H 7 09:56:27.40 2.992 01:40:47 Lost
264 Marengo Creek Farms - AL 2716-AU17-MCF BB H 3 09:56:36.40 2.990 01:40:54 Yes
265 Delmon And Oregel Lofty - NV 14189-AU17-AA BC H 2 09:57:13.10 2.979 01:41:33 Lost
265 Sugaronni Loft - CA 7055-AU17-FOYS BB H 5 09:57:15.80 2.979 01:41:33 Yes
267 Jack's Loft - CA 4391-AU17-FOYS King's Child GRZ H 3 09:57:26.80 2.976 01:41:44 Yes
268 Fog City Loft - CA 2325-AU17-FCL DC H 3 09:57:34.80 2.973 01:41:55 Yes
269 Hayloft - CA 7199-AU17-GSF BC H 4 09:57:39.40 2.972 01:41:58 Yes
270 Loizzi - Sikora - CA 3776-AU17-FVC BB H 4 09:57:52.20 2.968 01:42:13 Yes
270 America\'s Dream Loft - IL 0090-AU17-ADL BB H 2 09:57:54.90 2.968 01:42:13 Yes
272 Skylinerpl.Com - UT 0088-AU17-UVI "De Belser's Girl" BB H 5 09:58:15.50 2.962 01:42:34 Yes
273 Ceyx Loft - CA 0847-AU17-CEYX BB H 4 09:58:22.80 2.960 01:42:41 Lost
274 Skychargers - CA 0011-AU17-CORO BC H 4 09:58:30.10 2.958 01:42:49 Yes
275 Bieche-Stevenson - CA 7434-AU17-BIE BC H 5 09:58:40.60 2.955 01:43:00 Yes
276 H & H Flying Circus - CA 0713-AU17-ML PIED H 8 09:58:44.70 2.954 01:43:03 Yes
277 G & L Loft - OR 7040-AU17-JC BC H 3 09:58:55.30 2.951 01:43:14 Yes
278 Aimhigh Loft - CA 0081-AU17-FMT Aim-0081 DC H 2 09:59:00.50 2.950 01:43:18 Yes
279 Kim Wong - VT 10880-AU17-ARPU BC H 4 09:59:08.20 2.947 01:43:29 Lost
280 John Hedderson - CA 7116-AU17-FSC Cheng2 4007x4041 BCWF H 3 09:59:13.90 2.946 01:43:32 Yes
281 Lucky Luster Loft - CA 0033-AU17-RBPC BB H 1 09:59:38.70 2.939 01:43:58 Lost
282 Racing Pigeon Mall - WA 0704-AU17-RPM BB H 2 09:59:58.30 2.934 01:44:16 Yes
283 America\'s Dream Loft - IL 0085-AU17-ADL BC H 3 10:00:17.10 2.929 01:44:35 Lost
284 Nanez Family Lofts - WI 4182-AU17-NFL BB H 2 10:00:35.30 2.924 01:44:53 Yes
285 Loizzi - Sikora - CA 3702-AU17-FVC BCWF H 5 10:00:51.10 2.920 01:45:08 Yes
286 Blue - Face - CA 1101-AU17-FVC BB H 5 10:00:56.70 2.918 01:45:15 Yes
287 Jactions Loft - CA 15965-AU17-AA BB H 7 10:01:10.60 2.914 01:45:30 Lost
288 California Breeders Syndicate - CA 4550-AU17-AA BC H 5 10:01:22.70 2.911 01:45:42 Yes
289 Marengo Creek Farms - AL 2677-AU17-MCF BBWF H 4 10:03:00.30 2.885 01:47:20 Yes
290 Fleet Washington - DC 1770-AU17-FLET BB H 4 10:03:05.30 2.884 01:47:23 Yes
291 D J's Loft Of Ca - CA 6034-AU17-FSC BB H 4 10:03:08.30 2.883 01:47:27 Lost
291 Plymouth Peak Pro Challenge - UT 7092-AU17-GS BB H 3 10:03:09.40 2.883 01:47:27 Yes
293 Tom O`Brien - CA 70800-AU17-SOC BBWF H 6 10:03:12.30 2.882 01:47:31 Yes
294 Barrett Family Loft - IL 0021-AU17-BARR BC H 8 10:03:36.20 2.876 01:47:54 Yes
295 Euro Dead - CA 6631-AU17-FSC “G.C CHALLENGE” DC H 6 10:03:53.90 2.871 01:48:13 Yes
296 Tom O`Brien - CA 70807-AU17-SOC BBSP H 7 10:04:20.20 2.864 01:48:40 Lost
297 A P C Loft - TX 17173-AU17-APC BB H 7 10:05:14.20 2.850 01:49:35 Lost
298 John Hedderson - CA 7101-AU17-FSC 4006x13070 RC C 4 10:06:32.20 2.831 01:50:49 Yes
299 Drama Queen Loft - TX 0339-AU17-GCI BC H 2 10:08:03.30 2.808 01:52:21 Yes
300 Nanez Family Lofts - WI 4177-AU17-NFL BB H 3 10:08:28.60 2.801 01:52:49 Yes

There are 205 bird records

Note: These Race Results are unofficial and subject to change until verified by the Race Committee and declared final.